Location: Bucquoy
(50.1391°N, 2.7097°E)
Time: 03:56:23
(UTC+00:00)

Cosmos 1544 Rocket - Pass Details

Date: 06 May 2021
Orbit: 605 x 629 km, 82.5° (Epoch: 22 June)

Event Time Altitude Azimuth Distance (km) Brightness Sun altitude
Rises 02:26:42 0° 353° (N) 2,886 7.7 -14.5°
Reaches altitude 10° 02:28:58 10° 358° (N) 1,979 6.8 -14.3°
Maximum altitude 02:33:16 55° 76° (ENE) 744 4.3 -13.8°
Drops below altitude 10° 02:37:35 10° 155° (SSE) 1,978 5.9 -13.3°
Sets 02:39:50 0° 160° (SSE) 2,882 6.7 -13.1°
